CAPE
1653 1625 1413 1772 1879 1838 1948 2210 2385 2688 2697 2844 2821 3005 2990 2990 3084 3094 3200 3319 3302 3160 3097 3133 3206 3141 3247 3258 3061 3085 3070 3113 3035 3010 2950 3034 2723 2761 2695 2549 2480 2482 2518 2727 2536 2491 2569 2386 2408 2484 2570 2643 2555 2532 2432 2188 2212 2415 2321 2211 2502 2640 1931 1829 2042 2341 2363 2425 2319 2547 2634 2658 2462 2383 2524 2282 2062 1741 1803 1568 1656 2006 2116 2226 2303
1397 1567 1384 1526 1798 1933 2058 2074 2350 2789 2825 2955 2961 3028 3006 3020 3080 3176 3094 3266 3324 3292 3250 3256 3309 3246 3237 3248 3237 3241 3130 3049 3080 3062 2989 2907 2786 2634 2602 2461 2503 2531 2698 2726 2555 2172 2047 2103 2122 2187 2435 2500 2438 2539 2618 2473 2456 2567 2551 2404 2436 2083 2041 2051 2008 2333 2335 2318 2531 2555 2604 2473 2625 2504 2420 2206 1986 2066 2050 2279 2124 2016 2065 2207 2236
1510 1526 1134 1487 1739 1968 2045 2456 2735 2851 2955 3037 2962 2950 3141 3138 3134 3265 3229 3298 3308 3213 3145 3256 3066 2952 3141 3333 3310 3180 3090 2980 3023 2855 2905 2984 2485 2636 2502 2392 2507 2340 2600 2736 2414 2212 1989 1854 1982 2308 2298 2398 2313 2302 2271 2503 2490 2288 2306 2378 2390 2276 2119 1998 2343 2350 2460 2492 2378 2474 2600 2561 2424 2222 2246 1996 1995 1843 2352 2430 2410 2248 2499 2446 2222
1215 1481 1378 1420 1694 2224 2095 2579 2706 2884 3014 2973 2999 3169 3148 3267 3236 3189 3200 3340 3297 3168 3139 3150 3125 3312 3306 3148 3119 2968 2958 2821 2871 2756 2578 2475 2356 2267 2412 2646 2634 2539 2470 2512 2307 2200 2017 1819 2112 2213 2246 2304 2528 2243 2344 2372 2469 2401 2137 2285 2338 2219 2391 2419 2450 2506 2481 2443 2465 2396 2398 1898 2084 2349 2253 2311 2216 2191 2255 2479 2582 2431 2353 2676 2517
1398 1428 1415 1318 1418 2110 2213 2399 2912 3031 3100 2983 3033 3188 3196 3156 3199 3156 3261 3286 3134 3002 2897 3081 3231 3280 3130 3146 3132 3081 3019 3041 2872 2786 2289 2536 2346 2331 2596 2574 2547 2728 2492 2552 2584 2429 2381 2228 2166 1996 2093 2111 2373 2282 2201 2329 2515 2536 2504 2565 2388 2324 2451 2366 2364 2324 2364 2506 2386 2156 1938 1730 1860 2336 2442 2377 2183 2293 2267 2378 2357 2440 2330 2611 2605
1658 1636 1607 1688 1805 1960 2311 2537 2774 2970 3004 2915 2862 3016 3011 3048 3076 3091 3099 3080 2946 2952 3222 3155 3147 3124 3167 3090 3047 2944 2798 2864 2866 2538 2461 2315 2233 2194 2556 2740 2502 2578 2457 2367 2407 2408 2453 2369 2290 2285 2237 2185 2108 2358 2444 2608 2618 2537 2481 2519 2427 2252 2320 2510 2481 2328 2181 2103 2352 2140 1961 1928 1736 1882 2231 2043 2269 2353 2365 2184 2435 2002 2266 2303 2410
1441 1548 1705 1965 2063 2148 2516 2569 2718 2947 2977 2905 2969 2981 2947 2942 3007 2974 2898 2849 2833 3203 3217 3186 3061 2960 2955 2962 2873 2644 2474 2480 2621 2296 2361 2338 2260 2184 2518 2419 2356 2301 2370 2343 2315 2397 2486 2281 2260 2138 2163 2130 2393 2579 2451 2562 2578 2555 2754 2748 2572 2446 2520 2418 2269 2244 1995 2118 2145 1964 1983 2026 1878 1790 2066 2042 2123 2500 2348 2148 2302 1989 2026 2345 2171
1058 1258 1617 1935 2140 2102 2646 2860 2670 2732 2763 2776 2798 2751 2798 2854 2779 2747 2866 2972 3046 3052 3051 2787 2638 2658 2890 2926 2705 2624 2452 2552 2542 2482 2523 2324 2077 2028 2220 2327 2189 2271 2348 2258 2377 2148 2122 2200 2127 2272 2316 2441 2353 2378 2480 2378 2578 2582 2363 2433 2418 2451 2403 2143 2229 2308 2283 2168 2244 1816 1936 2095 2106 1884 2338 2274 1969 2359 2307 2200 2242 2270 2450 2145 2189
837 798 918 1407 2178 2759 2856 2729 2598 2556 2580 2556 2594 2624 2627 2632 2688 2884 3001 2952 2922 2939 2936 2638 2616 2711 2782 2828 2683 2495 2521 2524 2383 2705 2660 2052 1903 1775 1717 1955 1911 2038 2118 2194 2167 2238 2217 2312 2163 2215 2277 2345 2293 2360 2406 2493 2367 2402 2397 2423 2433 2196 2277 2139 2008 1956 1683 1818 2242 2372 2517 2043 1916 1989 2392 2429 2269 1904 1862 1791 2040 1844 1913 1872 2028
781 812 966 1503 2086 2867 2760 2588 2524 2472 2402 2504 2545 2575 2634 2680 2744 2863 2895 2779 2742 2854 2840 2772 2639 2716 2715 2754 2656 2610 2685 2485 2563 2601 2471 2184 2123 1767 1867 1704 1716 1771 2053 2221 1882 2089 2101 2435 2320 2271 2252 2474 2627 2478 2323 2249 2500 2407 2486 2453 2467 2358 2167 1995 1967 1926 1870 2145 1973 2165 2483 2311 2195 2042 2184 2203 2188 1801 1947 2016 2169 2152 2204 2315 2193
687 773 1145 1462 1990 2696 2488 2447 2529 2537 2623 2554 2555 2570 2645 2672 2678 2649 2784 2810 2834 2705 2586 2595 2566 2573 2661 2518 2562 2612 2589 2580 2565 2502 2532 2560 2131 1782 1720 1647 1615 1860 2008 1915 2140 2233 2261 2456 2418 2385 2373 2381 2532 2484 2286 2298 2375 2231 2323 2410 2302 2230 2259 2114 1977 1927 2106 1940 2044 2206 2166 2478 2012 1975 2282 2202 1998 2254 2399 2357 2486 2248 2110 1989 2102
664 787 1441 2054 2585 2658 2534 2498 2584 2617 2652 2638 2709 2673 2638 2703 2734 2723 2694 2842 2784 2543 2517 2540 2573 2515 2576 2394 2288 2478 2245 2653 2719 2528 2555 2692 2300 1952 1709 1553 1680 1980 1819 2025 2236 2266 2334 2408 2487 2390 2275 2464 2514 2499 2348 2249 2292 2193 2006 2421 2531 2546 2377 2171 2006 1863 2034 2204 2183 1935 1867 1833 1702 2175 2176 2128 2081 2356 2500 2548 2078 2113 2087 2001 2015
644 1350 2004 2231 2222 2469 2416 2551 2549 2476 2680 2806 2731 2672 2692 2817 2706 2712 2720 2748 2637 2462 2498 2496 2399 2347 2498 2534 2533 2530 2539 2546 2624 2674 2684 2657 2346 2196 1943 1720 2044 2115 2109 2140 2076 2016 2190 2351 2332 2329 2428 2433 2390 2251 2267 2259 2373 2293 2260 2359 2313 2552 2154 2235 2174 1916 1694 1968 1985 2172 2204 2000 2003 2333 2044 2124 2122 2456 2403 2233 2156 2158 2212 2053 2074
1062 1342 1700 1929 2064 2569 2432 2454 2434 2538 2796 2797 2773 2669 2697 2765 2736 2687 2742 2689 2639 2516 2429 2262 2289 2360 2215 2507 2787 2643 2606 2730 2744 2740 2720 2310 2353 2399 2293 1902 2159 2130 2140 2209 2118 2185 2357 2231 2229 2060 2183 2344 2338 2233 2396 2236 2345 2283 2331 2305 2344 2377 2035 2126 2018 1612 1509 1734 2086 1964 2208 2305 2141 2189 2144 2117 1992 2138 2224 2228 2245 2123 2167 2006 1971
710 1174 1597 2038 2293 2283 2455 2395 2603 2788 2809 2807 2767 2762 2772 2707 2616 2699 2742 2648 2660 2592 2462 2308 2237 2430 2566 2692 2696 2537 2648 2641 2722 2658 2610 2536 2484 2562 2219 2309 2292 2383 2140 2138 2419 2286 2217 2346 2184 2057 2310 2294 2409 2390 2304 2342 2208 2457 2467 2378 2289 2428 2379 2134 1950 1454 1212 1308 1787 2106 2172 2195 2179 1758 1933 2136 2189 2167 2206 2240 2213 2089 2066 2050 2003
792 1289 1805 1812 2095 2337 2265 2639 2850 2897 2854 2888 2822 2841 2698 2647 2512 2526 2683 2408 2512 2482 2339 2310 2510 2622 2637 2718 2676 2722 2746 2683 2666 2588 2550 2575 2548 2581 2470 2338 2061 2198 2219 2338 2402 2102 2257 2231 2060 2066 2281 2367 2522 2587 2309 2515 2282 2420 2391 2373 2118 1927 2264 2151 1470 1069 1172 1375 1951 2043 2060 2084 2102 1729 2052 2240 2317 2153 2149 2165 2068 1978 1923 1933 1915
1038 1246 1536 1942 2180 2073 2295 2408 2776 2965 2902 2848 2838 2788 2707 2579 2468 2666 2507 2430 2680 2606 2568 2638 2663 2559 2608 2717 2681 2719 2694 2658 2694 2766 2845 2715 2550 2540 2608 2558 2517 2419 2266 2512 2328 2176 2189 2189 2068 1981 2338 2422 2338 2417 2614 2530 2372 2589 2776 2509 2020 1976 2200 1939 1474 1355 1300 1401 1637 2001 2000 1865 2188 1982 2110 2030 2066 2094 2099 2036 1968 1898 1946 1967 1948
696 1076 1444 1539 1706 1926 2058 2293 2628 2597 2586 2618 2488 2673 2564 2515 2481 2525 2599 2566 2744 2766 2759 2768 2690 2683 2648 2450 2486 2676 2735 2796 2873 2779 2626 2606 2534 2370 2313 2352 2475 2484 2592 2509 2360 2182 1966 1972 1949 2010 2300 2267 2257 2438 2493 2376 2472 2556 2538 2466 2381 2351 2004 1466 1597 1348 1436 1388 1406 1812 1916 1941 2298 1827 1992 1937 1972 2027 1959 1890 1944 1994 2015 2003 1843
537 846 1200 1312 1430 1457 1718 2228 2276 2398 2480 2405 2285 2312 2493 2541 2415 2562 2638 2816 2871 2893 2771 2666 2530 2599 2438 2291 2564 2709 2842 2885 2891 2798 2489 2546 2438 2284 2380 2252 2224 2039 2340 2237 2419 2453 2421 2340 2221 2294 2345 2415 2569 2544 2483 2301 2109 2423 2513 2098 2086 2433 2001 1681 1519 1402 1794 1691 1685 1720 1942 2458 2218 2135 2171 2118 2082 1930 1934 2070 2052 1961 2084 2145 2141
500 709 784 810 1020 1214 1964 1814 2006 2231 2285 1918 2075 2005 2015 1987 1776 2334 2519 2786 2938 2796 2765 2497 2490 2461 2314 2421 2488 2503 2440 2166 2410 2416 2464 2326 2107 2262 2252 2188 1971 2136 2296 2323 2335 2341 2534 2529 2502 2422 2492 2617 2567 2513 2477 2360 2289 2134 2306 2003 1880 2035 1725 1161 1401 1447 1596 1993 2171 1994 2290 2264 2208 2102 2094 2066 2172 2042 1842 1629 1741 2070 2114 2160 2026
437 626 619 703 1218 1638 1570 1692 1908 2173 1712 1806 1742 1998 1987 2036 2019 2468 2659 2755 2906 2773 2638 2436 2459 2362 2354 2410 2274 2401 2585 2569 2286 2428 2388 2367 2418 2246 2262 2354 2256 2205 2303 2330 2496 2491 2332 2501 2638 2587 2680 2686 2609 2600 2489 2324 2399 2390 2284 1863 1628 2103 1726 1696 1361 1483 1709 1918 2245 2106 2266 2115 2115 2046 2023 1955 1957 1951 2017 2059 2154 2164 2048 1974 2011
507 482 463 758 1178 1474 1614 2088 2214 1965 1585 1694 1864 2020 2178 2106 2142 2363 2654 2708 2802 2789 2686 2596 2470 2490 2406 2482 2636 2636 2426 2632 2706 2414 2666 2456 2139 2217 2142 2145 2198 2308 2550 2597 2623 2651 2629 2503 2699 2870 2886 2897 2842 2508 2684 2398 2321 2329 2460 2339 2675 1709 1143 1597 985 1295 1768 1974 2266 2246 2359 2124 2122 2111 2122 2108 2074 1948 1910 2045 2097 2099 2103 2048 1985
547 519 476 751 1223 1655 1590 1564 1938 1828 1490 1688 1622 2098 2175 2400 2476 2530 2566 2680 2612 2843 2748 2698 2661 2748 2774 2837 3070 2675 2482 2886 2912 2753 2524 2313 2169 2121 2182 2274 2496 2645 2650 2639 2699 2729 2557 2470 2550 2714 2736 2866 2846 3407 2581 2468 2520 2372 2627 2915 2337 2881 2145 1609 1199 1560 1786 1955 2044 2388 2216 2157 2205 2107 2184 2182 2157 1987 1982 1964 1902 1838 1879 1900 2001
552 403 403 556 1049 1509 1366 1407 1654 1698 1660 1503 1711 2007 2186 2513 2372 2350 2478 2624 2657 2822 2618 2678 2993 3056 2794 3082 2832 2865 2643 3224 2829 2654 2454 2355 2390 2198 2206 2467 2743 2628 2857 2712 2740 2675 2488 2460 2576 2583 2199 2404 2883 3176 2345 2068 2376 2537 2923 2555 2848 1298 1358 1661 1275 1712 1913 2043 2018 2228 2042 2044 1984 2090 2127 2192 2217 1998 1964 1961 1899 1935 2040 1968 1989
547 408 402 452 917 1436 1410 1911 2112 2120 1449 1502 1658 1837 2249 2302 2488 2418 2461 2461 2531 2566 2561 2590 2576 2606 2353 2888 2299 2412 2557 2757 2624 2604 2417 2589 2537 2436 2546 2247 2258 2418 2085 2467 2647 2734 2684 2604 2578 2654 2654 2136 2416 2574 2313 2161 1946 2039 1897 1503 1944 1581 1442 1774 1810 1852 2146 2255 2133 2256 2137 2145 2185 2102 2151 2202 2321 2199 2110 2187 2058 2073 2100 2075 2066
448 543 496 506 719 1303 1550 1690 2067 2033 1568 1517 1828 2355 2372 2198 2234 2295 2314 2278 2718 2327 2737 2716 2458 2397 2028 2056 2173 2128 2311 2055 2861 2908 2688 2339 2284 2389 3128 2508 2310 2378 2249 2325 1998 2656 2740 2270 2017 1380 2142 1928 1683 1857 1560 2367 2393 2044 1737 1775 2155 1741 1473 1431 1860 2082 2166 2359 2505 2473 2190 2146 2064 2102 2115 2095 2074 2168 2155 2149 2061 2061 2137 2104 2082
470 567 502 494 584 983 1446 1663 1913 2286 1542 1640 2279 2335 2003 1736 1905 2249 2092 2229 3046 2561 2270 2453 2907 2458 2188 2226 1935 2106 1801 2240 2526 2305 2370 2364 2197 2232 2259 2701 2728 2441 2757 2271 2156 2177 2171 2189 2203 1823 1742 1617 1138 1584 1440 1670 1418 1221 922 1446 1759 1426 1628 1598 1775 2001 2112 2348 2492 2456 2339 2148 2075 2088 2008 1932 2018 2103 2096 2017 2014 2042 2006 2078 2020
630 536 571 465 636 581 1282 1385 1508 1599 1506 2133 2085 1796 1909 1712 1648 2328 1807 2250 2331 1888 1300 1886 2451 2331 2062 2218 2049 2414 2496 2447 2733 3114 2978 2686 2679 2583 2380 2254 2052 2245 2556 1777 2018 2260 2176 2226 2104 1949 1650 1374 1069 1198 915 1468 2010 1594 1966 1343 1553 1668 1754 1727 1804 1916 2008 2208 2456 2520 2446 2189 2063 1995 1966 1943 1893 1916 1946 2044 2043 2009 1955 1952 1870
442 610 570 411 440 818 800 791 993 1524 1224 1691 1815 1875 1807 1599 1959 2117 2059 2043 1765 2114 1803 1623 1881 1903 2151 2308 2024 2044 2135 2462 2568 2558 2792 2966 2451 2194 2328 2049 2185 1859 2454 2120 2149 2709 2356 2252 2228 2920 1798 1372 1582 1061 1232 1278 1244 1340 1431 1534 1359 1741 1752 1681 1830 1763 1781 2044 2212 2484 2439 2400 2236 2108 2057 2022 1937 1929 1896 1910 2013 1954 1965 1944 1831
432 482 435 423 457 601 627 834 1133 1334 983 933 1055 1470 1926 1891 2066 2081 2336 1841 1590 1848 2081 1426 1714 1601 1707 2915 2549 1914 1625 1534 1674 2145 2458 1976 1924 2230 2348 1967 2238 2424 2511 2139 2982 2971 3498 2071 2544 2046 1735 2521 1500 984 1574 669 515 905 1158 1290 1234 1227 1712 1721 1724 1839 1876 1986 2148 2408 2477 2429 2394 2314 2195 2066 2016 1914 1848 1902 1974 2010 1999 1993 2022
471 352 250 334 732 542 626 760 1280 1747 1057 686 932 1089 1423 1669 1787 1734 1518 1539 1240 1553 1474 1124 1064 1008 2381 3357 3780 3787 2122 1897 1724 2337 3142 2588 2224 2456 2659 2555 2756 2639 2537 2358 2736 3007 2808 2861 2777 2882 3004 2658 2411 1664 2074 1117 972 595 975 1002 1225 1260 1519 1668 1639 1683 1734 1920 2059 2260 2431 2463 2450 2396 2399 2310 2127 2010 1941 1939 1987 1980 1968 2012 2021
446 255 228 499 522 407 462 736 987 1468 1401 596 1183 994 1132 1225 1360 1124 1142 1173 1689 1021 863 908 1576 2330 2774 3150 3645 3295 3846 3664 2885 3072 2347 3170 3116 2998 3029 3365 3094 2919 2776 2799 2696 2744 2861 2905 2886 3398 3291 2567 2538 1941 1984 1248 1084 442 993 995 1034 1596 1330 1744 1597 1570 1714 1949 2015 2142 2348 2390 2465 2494 2467 2356 2262 2184 2087 1935 1829 1859 1877 1904 1908
437 247 199 428 395 230 635 641 767 1593 1446 673 615 942 1006 770 901 1009 1030 1239 1195 852 799 1197 2491 2601 3214 3312 3757 3768 4449 3808 3106 3215 2902 3183 2923 3074 2887 3065 2780 3289 2970 2935 2561 3186 2818 3653 3272 2875 3270 3052 2707 1908 1374 906 1355 697 468 844 1158 1283 1230 1165 1613 1493 1715 1961 2074 2056 2113 2264 2335 2506 2472 2406 2335 2356 2302 2139 1914 1844 1793 1786 1759
315 261 135 220 278 314 593 737 916 950 1424 676 1377 1096 1077 768 753 766 1448 1495 878 798 1346 2179 2536 2703 2850 3518 3454 3630 4026 3940 3432 3506 3179 2732 2895 2914 2967 3072 2875 2975 3170 3498 3244 2977 2901 2892 3198 3178 2826 3368 2414 2281 1632 866 902 1019 811 876 1243 1686 1212 1046 1249 1714 1789 1858 2181 2140 2092 2126 2287 2376 2416 2376 2400 2288 2279 2295 2179 2017 1810 1721 1691
241 285 107 230 120 358 468 642 1119 888 1117 1294 1150 1239 1261 560 780 734 1400 1429 898 560 686 1652 2088 2217 2714 3247 3673 3792 3679 2853 3004 3492 3255 2418 2330 2640 2550 2702 2546 2766 2935 2839 2947 2630 2742 2921 3298 3275 3091 2806 2095 2322 1786 1212 587 829 1190 1103 719 1070 1245 1122 1018 1390 1851 2108 2436 2068 2200 2135 2180 2234 2212 2400 2470 2475 2325 2288 2399 2273 2161 1867 1739
159 397 68 265 55 343 558 645 677 946 1258 1377 1367 1362 1241 1220 850 1306 1328 1664 898 472 987 1030 1340 2000 2424 2992 3413 3574 3280 3028 2906 2968 3126 2760 2413 2189 2980 2838 2949 3379 3368 2988 2638 2505 2660 2395 2457 2499 3331 2347 2604 2263 2168 1358 891 686 768 961 847 1548 1564 1581 971 662 836 1933 2281 2358 2350 2468 2438 2418 2360 2234 2336 2488 2516 2548 2269 2370 2251 2155 2015
75 300 221 358 214 386 689 536 580 464 1175 636 1468 1499 1635 1400 1349 944 491 1291 531 660 961 906 1035 1316 2069 2828 3402 3131 2900 2656 2511 2240 2928 3070 2250 2651 2816 2715 3033 3172 3254 2783 2625 2583 2690 1996 2684 2821 2550 3012 1982 1037 1002 1105 725 571 701 569 818 1408 1382 1904 708 924 1071 1513 1468 2359 2378 2460 2777 2818 2840 2658 2349 2521 2560 2562 2493 2458 2448 2445 2209
61 218 63 243 70 420 341 556 585 359 1483 983 1608 1200 1510 1349 1328 1117 1053 846 370 418 430 939 1097 1976 2383 3546 4029 3912 3958 2562 2752 3311 3350 2757 2764 3029 2084 1968 2635 2887 2893 2682 2564 2463 2490 2107 2784 3191 2626 2891 2897 1284 922 783 501 382 468 393 1006 1331 1318 1475 1166 1772 1895 1389 1585 1584 1940 2371 2796 2466 2258 2496 2481 2570 2133 2573 2599 2516 2555 2463 2384
75 230 4 715 204 371 429 879 738 390 882 806 1974 1333 1578 1291 891 1032 585 1477 1015 739 761 1074 1274 1702 2300 3486 3796 4139 4282 3494 3644 3783 3287 2688 2283 1859 2301 2524 2618 2520 2840 2816 2489 2621 2620 2462 2022 3019 3138 3563 3127 1778 1295 954 580 314 184 480 1006 1496 1662 1178 1932 1590 1161 552 703 656 890 1769 1917 2586 2505 2485 2439 2427 2240 2452 2596 2584 2584 2571 2510
143 399 82 763 663 296 717 875 937 349 1336 1047 1874 1273 1172 1105 583 588 215 917 668 740 742 638 1446 1860 2574 3418 3844 3951 4098 3977 3674 3705 3103 2659 2086 1485 1832 2112 2243 2409 2532 2508 2266 2767 2943 2747 2504 2922 2889 3126 2474 2067 843 932 858 798 1056 908 1322 1435 1338 1204 1054 1046 1059 645 728 1197 506 948 1454 2168 2534 2544 2458 2586 2607 2485 2723 2441 2443 2608 2662
443 649 304 585 789 37 893 883 886 794 1669 1159 1552 1243 1423 1270 750 411 47 142 930 698 646 424 1766 2482 3283 3322 3661 3643 4234 4080 3921 3554 3379 3346 3008 2552 1906 2404 2534 2721 2296 2530 2528 2452 2795 2995 2999 3376 2635 2921 1352 1508 1047 945 1367 1101 2190 898 1083 995 1021 1190 817 799 657 588 514 992 890 893 1152 1487 1760 2051 2303 2429 2878 2907 2754 2794 2799 2888 2644
622 652 296 509 512 0 760 878 945 944 1820 1582 1943 1368 1680 1142 917 467 64 202 727 1020 986 542 797 2515 3429 3401 3399 3863 4120 3952 4093 4267 3872 3382 2362 2115 1614 2035 2905 2602 2932 2471 2005 2785 3200 2764 2804 2946 2918 2798 1620 735 697 793 1176 1041 928 1094 1141 1242 1058 744 540 372 406 469 498 645 370 400 544 894 1239 1548 1505 1564 2194 2397 2614 2420 2973 2980 2330
428 587 400 605 835 70 959 790 946 1152 1663 1932 2190 1559 1494 1259 753 478 273 159 232 348 190 212 552 1740 2536 2979 2905 3780 3814 4126 4155 4093 3390 3351 2908 3053 2592 3357 3434 3175 3351 3348 3206 2676 3252 2807 3068 3740 3188 2787 1585 990 1219 1068 1219 717 1448 1283 919 752 1053 1785 473 348 234 318 350 450 377 343 465 896 1220 1490 1321 1104 1294 1532 2025 2630 2921 3078 2993
691 548 376 784 675 642 1296 1086 1072 1347 1410 2050 2050 1538 1470 1435 1375 1227 669 127 152 468 649 458 265 1452 1828 2237 3237 3651 3447 3366 3553 3529 3033 3315 3532 3926 3754 3762 4121 4053 3674 3427 3523 3473 3342 3000 2616 2513 2679 2826 389 632 708 758 1561 700 1160 962 868 860 865 1222 796 824 268 227 223 31 170 388 520 688 1602 1363 1164 1375 823 1420 804 2075 2401 2367 2675
611 592 509 594 482 910 1494 1653 1305 1580 1458 2249 2005 1835 1804 1777 1573 1606 887 1679 462 445 412 281 18 838 1344 1956 2496 3377 3576 3195 3062 3208 2959 3305 3321 3732 3978 3973 4019 3735 3388 3457 4495 3363 3243 2808 3246 2923 3182 2501 512 563 850 419 882 1439 2806 1278 1572 1056 1148 764 284 731 406 103 123 157 330 380 395 644 1118 1094 1198 1119 977 1381 2055 1614 2353 2094 1613
543 671 699 717 790 998 1546 2013 1592 1854 1706 2451 2132 1866 1914 1813 1556 1502 778 950 1329 478 672 484 15 46 632 1008 1973 2394 2972 2973 3444 3405 3211 3292 3631 3686 3582 3492 4064 4107 4096 3962 3464 3287 2655 2812 3364 3281 2739 3013 3301 686 552 1386 487 1302 1130 1486 1803 1203 542 853 359 1451 1410 305 342 230 158 277 358 1272 1306 563 1002 965 1716 1490 1696 2275 1984 2208 1565
675 720 826 1089 1006 1389 1674 1987 1909 2048 2145 2537 2206 2005 1725 1940 1481 1014 826 548 1989 845 917 243 334 90 130 1387 1978 2053 3115 2839 2837 3318 3326 3366 3650 3690 3677 3736 4046 4035 3814 4028 2788 2735 2642 2517 2780 2642 3377 3164 2975 3898 1026 691 1068 937 678 519 760 649 889 1540 1236 970 1555 1875 831 250 204 236 407 769 875 570 729 1113 1035 1517 1477 1595 1832 2024 2247
696 776 872 962 1350 1764 1781 2011 2298 2189 2389 2662 2534 1906 1732 1862 1603 897 874 562 485 1662 1446 1436 1253 781 422 639 1536 1753 2595 2859 2902 3589 3741 3495 3660 3791 3857 3599 3682 3449 3769 4074 3326 3168 3011 2836 3381 3452 3790 4383 3234 3169 1873 757 1443 1283 744 1026 456 29 457 160 838 1317 1832 1606 1470 272 86 4 458 354 582 587 574 670 1148 1730 1511 1771 1634 1763 2325
739 804 873 1473 1668 2136 2156 2197 2414 2327 2637 2909 2488 1943 1820 2106 1695 1217 1375 892 706 1677 1600 1185 1066 1169 956 1019 1661 1704 2850 2853 3258 3337 3569 3679 3720 3806 3921 3840 3549 3406 4105 3225 2837 2245 2661 3762 4053 4231 4527 4172 3776 3509 2769 3613 1733 1340 2084 980 1029 880 230 206 162 1119 952 1495 848 620 200 27 154 148 221 46 435 795 1293 1039 1536 1338 2050 2114 1826
862 1282 956 1160 1465 2212 2606 2346 2532 2346 2621 2939 2498 2014 2178 2229 1869 1256 1448 1248 1036 1233 1219 1215 1665 1406 1939 1210 1905 2640 2314 2657 2722 3310 3915 3810 3682 3659 3569 3477 3355 2304 2889 2173 2356 2495 2994 3801 3757 3568 3768 3540 3920 2870 2687 2903 1436 1309 794 1523 2134 1617 2014 1168 180 565 201 851 1343 1103 505 583 1244 450 485 362 180 196 857 1142 1773 906 1802 2125 2089
973 950 898 1214 1254 1949 2718 2560 2688 2201 2459 2955 2544 2234 2300 2205 2010 1414 1330 1387 1132 1338 1212 1655 1263 1868 1726 1510 1709 2800 2409 2544 2163 2919 3551 3265 3478 3538 2834 3096 3044 3276 3137 2792 2801 2303 2568 3134 3075 3814 3597 4050 3751 3363 2627 1670 2788 2436 1213 2275 2582 1380 1806 1422 788 910 877 676 1298 738 435 486 242 548 699 460 614 372 457 1075 914 599 1506 2082 2114
Wind_Speed
7 6 5 6 7 7 7 8 7 5 5 6 6 5 5 4 5 5 5 4 4 4 5 6 6 6 6 6 6 6 6 6 7 7 8 9 10 11 10 10 8 7 8 10 9 9 11 12 13 12 12 13 14 13 13 14 15 14 13 12 12 14 22 21 13 12 14 18 17 16 18 18 18 16 15 17 14 12 12 11 6 5 8 6 10
9 5 5 5 5 7 8 8 6 5 6 6 6 4 4 4 4 4 4 4 4 4 4 5 6 7 6 6 6 6 6 6 6 7 8 9 10 10 10 9 8 9 11 9 9 9 9 11 13 12 12 12 12 12 13 14 14 14 13 11 12 16 21 12 9 13 17 19 17 15 17 19 19 16 16 16 15 14 13 14 13 7 5 5 8
7 6 6 6 8 8 7 5 4 5 5 5 4 4 3 4 4 4 4 4 4 4 4 5 6 6 5 5 6 6 5 6 6 7 7 8 9 10 10 9 10 10 8 8 7 8 11 12 13 13 14 14 12 13 13 14 13 14 14 13 12 17 16 10 9 15 15 14 15 16 19 19 18 17 17 17 16 14 13 12 13 8 3 7 7
8 6 6 8 8 6 6 4 5 5 4 4 4 3 3 3 3 3 3 3 4 4 5 6 5 5 5 5 5 5 5 5 5 6 7 8 10 10 8 8 9 8 6 6 8 10 12 13 13 13 13 14 13 14 13 13 13 14 14 14 13 15 14 11 11 12 12 11 13 12 8 8 11 15 15 14 14 13 12 14 14 10 10 8 8
6 5 5 6 7 6 7 7 6 5 5 4 4 2 2 2 2 2 3 3 3 4 5 6 5 5 4 4 4 5 4 4 4 4 6 8 9 8 6 8 9 8 8 7 7 10 13 15 14 13 13 14 14 14 13 12 13 14 13 13 12 12 12 11 11 12 10 11 12 10 6 6 6 13 13 13 12 11 13 14 13 11 8 8 7
7 5 5 5 6 7 9 9 8 7 5 4 3 2 1 1 2 2 2 3 3 4 5 5 5 4 3 3 3 3 4 5 5 7 7 9 9 7 6 8 9 8 8 7 7 10 13 15 14 13 12 12 13 14 13 12 11 12 12 10 11 10 10 10 10 10 11 11 11 4 3 4 5 6 11 11 11 10 11 10 9 7 7 9 7
10 6 6 6 5 8 10 9 7 6 5 3 1 1 1 1 1 1 2 2 3 4 4 4 3 2 2 2 2 4 5 6 6 7 7 9 10 7 7 8 10 8 6 7 8 9 11 13 13 12 11 11 11 10 10 10 9 10 9 9 10 8 7 8 8 8 9 5 2 2 2 3 3 4 9 10 9 9 10 10 7 6 3 4 5
8 7 8 8 6 9 10 7 7 6 5 3 2 1 1 1 1 1 1 1 3 4 4 2 1 1 1 2 3 5 6 5 6 5 5 7 11 6 7 9 11 9 6 6 7 7 8 10 10 10 8 8 10 10 9 8 8 8 8 7 6 6 6 8 7 7 8 3 3 3 4 3 3 4 5 5 5 6 6 6 5 5 5 5 5
9 9 8 7 7 10 8 8 7 6 5 3 2 2 1 1 1 1 1 1 3 3 2 1 2 3 3 3 5 5 6 6 5 5 6 9 13 6 5 8 11 9 6 4 6 7 6 6 7 7 6 6 7 7 5 3 4 6 7 6 5 6 7 5 4 6 4 4 5 6 5 5 4 6 5 5 2 3 6 2 1 3 5 5 6
10 9 8 6 7 10 9 8 6 6 4 2 1 1 1 1 1 1 2 2 2 2 1 3 4 5 5 5 5 5 5 5 5 5 5 6 14 7 4 6 11 11 4 3 6 7 7 4 4 4 4 4 5 4 1 3 5 6 5 4 4 5 5 4 3 2 6 7 9 9 7 5 8 8 7 6 6 5 4 2 2 2 4 7 8
13 9 8 8 10 9 9 8 7 4 3 1 1 1 2 1 0 1 1 1 1 2 3 4 5 5 5 5 5 5 5 5 6 6 5 6 11 15 7 8 7 11 7 4 3 5 5 5 4 2 3 3 3 2 1 3 4 5 3 2 1 2 4 3 2 8 10 10 11 12 8 4 8 9 7 5 3 1 3 4 5 6 7 7 7
12 10 9 7 11 10 9 7 6 5 3 2 2 2 1 1 1 2 1 1 2 4 5 5 5 5 4 4 4 5 6 6 6 6 6 7 8 15 14 7 6 10 10 8 6 5 5 4 3 1 1 3 3 4 3 2 3 3 4 4 0 0 1 2 9 11 14 13 14 13 11 9 9 8 3 1 2 3 4 6 6 7 7 7 7
12 10 9 9 8 11 9 8 6 5 4 3 2 3 3 3 3 2 3 3 4 4 5 6 5 4 4 4 4 4 5 6 6 6 6 6 6 10 16 14 10 10 12 10 8 6 3 2 2 2 2 3 4 4 3 1 2 1 5 5 2 4 6 3 10 12 15 16 17 17 14 13 11 7 4 3 5 6 6 6 6 6 7 7 8
12 11 10 8 7 11 10 7 6 5 5 4 4 4 4 4 4 3 3 4 4 4 5 5 5 5 5 5 5 5 6 6 6 6 6 6 7 8 9 12 14 12 12 12 10 8 6 5 4 3 3 3 4 4 4 2 1 1 3 4 4 4 5 8 7 11 14 17 16 15 16 13 13 6 4 5 7 9 7 6 7 7 7 8 8
13 13 11 9 8 8 11 8 6 5 4 4 4 4 4 4 5 4 3 4 4 4 5 5 4 5 6 6 6 6 5 5 6 6 6 6 6 7 8 8 8 8 10 10 10 8 7 6 6 6 6 4 5 5 4 3 1 2 4 7 9 8 7 12 13 13 14 16 18 14 14 12 10 6 7 9 8 6 7 8 8 8 8 8 8
14 13 12 10 9 8 6 7 6 5 4 4 3 3 4 4 5 4 4 5 4 5 6 6 5 6 7 7 6 6 6 5 5 5 5 6 6 7 8 8 8 8 7 8 9 9 8 7 7 7 7 8 7 7 4 3 1 2 4 8 9 8 8 9 14 14 14 17 17 14 11 9 8 5 6 7 7 8 8 9 9 9 9 8 8
12 12 12 11 11 9 6 2 2 5 4 3 2 3 3 3 4 5 4 4 4 6 6 6 7 7 8 7 6 6 6 7 7 6 6 6 7 7 8 8 8 8 9 9 9 9 9 8 8 8 9 9 8 7 6 3 2 2 3 6 9 10 7 5 12 12 14 15 14 13 10 8 4 5 8 9 9 9 9 9 10 10 10 9 9
11 11 11 11 9 8 5 3 1 0 0 1 2 3 2 3 4 4 5 4 5 7 7 7 7 7 7 7 6 5 5 6 6 6 6 6 5 5 7 8 8 8 8 9 10 10 9 9 10 10 10 10 8 8 4 3 4 4 6 5 8 9 10 9 9 10 12 12 11 10 10 5 6 7 8 9 9 9 9 9 10 10 10 10 9
9 10 10 9 9 8 6 2 0 0 1 3 4 2 4 4 5 5 4 5 6 7 7 7 7 6 6 6 5 6 5 5 6 6 6 5 6 5 3 5 7 8 8 8 9 10 10 10 11 12 12 12 10 6 4 5 7 7 6 8 7 8 9 13 10 11 12 11 9 9 5 2 3 6 8 8 9 9 9 10 10 11 10 9 9
8 8 8 7 7 8 4 1 0 1 2 2 2 3 3 5 5 5 4 5 6 6 7 7 7 7 6 5 6 6 6 6 7 6 5 5 5 4 4 5 6 7 8 8 8 8 10 11 12 12 12 10 8 6 7 7 8 8 6 6 6 8 9 12 12 12 9 7 6 5 4 4 5 6 6 8 10 11 12 12 11 10 10 9 9
5 6 5 5 7 7 5 1 0 1 2 1 2 2 3 4 3 4 5 5 6 6 7 7 7 6 6 6 6 6 6 7 7 6 5 4 4 5 5 5 6 6 7 7 8 8 9 10 13 13 13 12 10 10 10 10 10 9 5 1 3 9 11 10 12 12 9 7 5 5 5 7 8 9 10 11 11 12 12 13 12 11 10 10 10
5 4 6 6 5 4 4 1 2 1 1 2 3 4 4 3 2 3 4 5 6 7 8 7 7 6 7 7 8 8 7 7 7 5 6 5 6 6 7 7 6 6 6 7 8 8 10 12 15 17 17 16 14 13 13 12 12 10 11 12 10 10 11 14 11 9 7 6 6 8 9 10 10 11 13 13 13 13 13 12 12 11 11 11 11
6 4 4 8 3 3 3 1 0 1 2 1 3 3 3 4 3 4 4 5 7 8 7 7 6 6 8 8 9 8 6 6 7 6 6 6 7 7 7 6 7 8 8 8 9 8 9 13 15 17 16 16 15 15 14 15 15 17 14 11 11 13 15 11 8 7 7 7 8 12 13 13 14 14 15 15 14 13 13 13 13 14 13 14 13
8 6 6 6 5 1 3 1 1 2 3 4 3 3 3 4 5 5 5 6 7 7 6 8 5 6 7 8 9 6 6 6 5 6 5 6 6 6 6 6 7 8 9 9 9 9 10 12 12 12 13 15 16 17 18 17 19 17 12 11 16 14 12 11 8 7 8 9 10 14 13 13 13 14 15 16 15 15 15 14 16 16 17 16 15
6 7 5 7 7 4 2 2 1 3 3 3 2 2 3 5 5 6 5 6 5 5 8 7 6 6 7 9 8 9 7 7 6 6 6 6 7 7 7 8 9 9 10 10 11 11 13 12 14 14 15 17 19 21 20 20 21 17 12 16 16 15 15 12 10 9 9 10 11 13 13 13 13 13 14 15 16 16 16 17 18 18 18 18 17
7 6 6 8 9 6 3 2 0 3 3 3 2 2 3 4 5 6 6 6 4 6 7 8 7 7 8 10 8 7 7 5 7 4 5 7 8 6 7 7 9 10 11 10 11 11 15 13 11 18 19 19 18 21 21 21 21 18 16 20 20 18 15 13 12 12 12 13 13 13 13 13 13 13 14 14 15 16 17 18 19 19 19 19 18
7 7 6 6 8 8 5 2 2 4 3 4 3 3 5 4 4 6 5 5 5 3 8 9 8 7 9 10 8 7 7 7 7 6 6 7 8 5 5 7 8 9 10 11 10 11 14 14 15 16 18 20 20 16 21 21 18 21 19 22 19 17 15 14 13 12 13 14 14 13 13 13 13 13 13 14 14 15 17 18 19 19 19 19 19
6 9 8 7 7 11 7 4 3 3 5 4 3 4 5 3 3 4 6 6 4 5 7 13 9 9 12 10 7 4 6 7 7 6 6 7 6 5 6 5 7 9 10 10 9 10 10 14 16 16 12 18 23 20 21 22 22 17 18 18 17 16 15 14 12 12 13 14 14 14 13 13 14 14 13 14 14 14 15 16 17 19 20 19 20
9 9 8 8 10 9 9 6 2 3 4 3 3 5 4 4 3 4 5 6 7 8 9 10 7 9 8 5 5 3 7 7 6 5 8 7 6 6 6 6 6 8 8 9 9 8 10 11 14 16 15 19 21 16 14 20 19 18 15 15 17 15 14 13 13 13 12 14 14 15 15 15 14 14 15 14 14 14 15 16 18 19 19 19 18
9 9 10 8 8 10 9 8 3 3 4 2 5 4 4 4 5 6 5 5 10 9 9 7 7 6 5 3 5 4 8 8 4 5 7 5 6 7 8 5 6 7 7 7 8 8 9 12 12 17 17 17 17 20 18 16 15 13 13 18 16 14 13 14 13 12 13 14 14 15 16 15 15 15 15 15 14 15 15 15 16 17 17 18 17
9 9 10 7 7 9 8 7 4 5 4 3 4 3 2 5 6 7 6 8 7 6 8 7 6 5 3 4 2 4 7 5 5 5 7 4 7 7 5 5 6 7 7 7 7 9 8 9 12 13 16 15 18 15 16 14 14 13 13 13 13 12 13 13 12 12 13 13 14 15 16 17 16 16 15 15 15 14 15 15 15 15 15 16 16
9 8 9 6 9 9 8 7 4 5 5 3 6 4 4 6 6 7 6 7 3 6 6 4 3 1 2 4 3 3 2 1 2 3 4 4 6 6 6 6 7 7 7 7 7 8 8 9 12 13 14 12 16 15 17 14 13 11 11 12 10 13 10 12 13 13 12 13 14 14 15 17 17 17 17 16 16 16 15 15 15 15 15 15 14
7 9 11 8 11 9 8 6 4 6 6 3 4 5 7 7 8 6 8 4 5 5 4 3 2 2 4 4 2 2 3 1 2 4 4 5 6 6 5 6 6 8 8 7 7 9 9 9 12 11 11 13 13 19 12 12 17 12 10 10 10 14 11 10 11 12 13 13 13 14 16 16 16 17 18 17 18 17 17 16 15 15 15 15 14
8 6 11 9 8 5 5 3 4 4 7 4 6 7 8 7 7 6 6 5 6 4 3 2 3 4 4 3 2 3 4 4 4 6 6 6 6 7 6 6 7 8 8 9 8 9 9 9 9 10 11 12 13 16 13 12 9 11 9 9 8 12 10 13 12 12 12 13 13 14 14 14 15 15 15 17 17 18 17 16 16 15 16 16 16
8 8 10 10 8 6 4 4 4 4 6 6 5 8 8 5 7 6 4 6 6 3 3 3 5 5 3 4 2 3 4 4 5 6 8 6 8 8 7 7 7 8 7 9 8 7 8 8 8 11 11 11 13 15 15 10 10 10 9 9 9 10 10 10 11 11 12 11 13 12 12 13 13 14 14 14 16 17 17 17 17 17 17 18 17
11 9 nan 8 nan 7 3 4 3 3 6 7 8 8 7 5 7 4 3 7 6 5 4 4 5 3 3 4 3 3 4 5 5 8 8 8 8 9 9 7 7 8 8 7 8 6 8 9 9 10 10 11 12 15 14 9 12 8 9 8 9 10 10 11 12 10 9 10 11 10 10 12 12 13 13 13 13 15 18 18 18 18 18 19 19
nan 11 9 7 6 9 1 5 3 2 6 4 8 8 7 6 6 3 3 7 5 6 6 5 5 3 3 4 5 4 5 5 5 7 9 9 8 8 9 8 10 10 8 8 7 7 9 9 10 10 9 10 12 15 9 11 11 9 12 7 9 10 9 13 9 9 8 8 8 10 10 10 11 13 12 12 12 12 16 18 19 20 20 20 21
nan 12 nan 7 nan 8 1 4 3 2 8 7 9 7 8 6 5 4 4 6 4 6 7 6 5 4 3 4 8 8 7 6 8 8 9 8 7 8 7 11 12 10 10 9 9 8 9 9 11 9 8 11 12 10 10 10 11 9 7 5 9 10 10 9 7 8 8 8 8 7 9 11 12 11 12 11 13 11 13 18 21 21 22 22 22
nan 11 nan 8 2 7 4 6 4 4 7 7 9 7 7 6 5 4 4 6 7 6 8 8 6 5 4 4 6 9 10 8 9 8 6 8 6 8 8 9 10 10 8 11 9 9 11 9 11 10 9 11 10 13 10 9 12 8 5 6 8 10 9 10 9 9 9 8 8 9 8 8 8 8 11 11 11 12 14 15 16 17 18 23 23
7 9 nan 7 3 7 6 7 6 5 8 7 8 6 6 5 4 4 4 8 7 7 7 8 7 7 5 5 7 8 8 9 9 9 7 9 7 8 8 9 10 9 10 10 9 10 11 11 10 11 12 12 11 12 10 11 9 10 8 8 9 9 10 10 9 8 6 6 8 10 8 8 5 10 11 11 11 14 14 15 17 17 17 21 25
8 9 7 7 4 nan 7 7 6 7 8 7 6 5 5 4 4 2 nan 5 9 8 7 6 5 5 5 6 6 7 9 9 10 9 9 9 8 6 8 8 10 10 11 10 10 11 10 10 9 11 13 15 10 12 9 9 7 9 12 9 9 10 9 11 9 7 8 5 9 9 6 6 6 7 8 13 15 15 15 15 16 16 17 16 20
9 9 6 7 5 nan 7 7 7 8 7 6 7 6 6 5 4 3 nan 4 7 8 11 9 5 4 5 7 7 7 7 9 10 10 9 8 7 9 7 8 12 10 10 9 10 11 11 12 10 12 15 15 12 10 6 7 9 8 10 10 8 10 9 11 12 10 10 7 6 6 11 6 7 8 9 9 10 12 16 16 18 17 16 16 18
11 10 6 7 6 nan 9 8 7 8 6 6 7 7 6 4 4 5 3 5 7 7 9 11 8 4 4 6 7 5 7 7 9 9 9 9 8 7 10 11 10 8 9 9 10 7 12 12 11 12 15 15 10 9 7 10 9 8 9 8 7 7 10 9 11 10 9 8 7 8 5 6 6 7 9 11 13 15 13 13 13 15 17 18 18
10 9 8 7 6 9 10 9 8 8 7 7 6 7 5 4 4 5 6 4 6 8 9 10 13 6 5 5 6 6 7 7 8 8 9 8 6 8 7 9 9 8 8 8 10 9 9 10 10 11 12 14 9 9 10 9 13 5 7 10 7 5 6 9 10 8 10 6 7 nan 9 4 6 8 10 11 13 10 9 10 11 11 13 15 16
9 9 8 7 6 9 10 11 10 9 8 8 5 6 5 4 4 6 8 9 7 8 10 10 nan 10 6 6 5 6 6 7 5 6 7 7 7 7 6 8 9 8 8 9 10 8 9 8 8 9 12 13 11 8 10 8 10 9 8 7 6 4 6 10 9 8 8 9 5 6 8 9 8 10 11 11 10 11 12 11 12 13 13 12 12
9 9 8 8 8 10 11 12 12 12 9 8 6 5 5 4 5 6 6 10 9 7 8 9 nan nan 6 4 3 5 5 6 4 5 6 5 6 6 4 6 8 8 9 7 6 7 9 10 8 10 11 10 11 9 7 7 7 7 8 6 4 3 4 6 6 8 9 8 9 4 8 9 12 12 12 10 13 13 13 12 12 13 12 13 15
11 10 9 8 8 12 11 12 13 14 11 10 6 5 5 6 5 6 9 9 10 9 10 9 9 nan 12 6 5 4 4 5 3 5 4 5 5 6 5 5 5 6 9 5 6 7 9 8 10 7 10 11 12 8 5 4 6 8 8 7 6 6 6 6 5 6 7 8 9 7 8 11 14 15 14 15 15 14 14 12 14 14 12 14 14
12 11 10 9 9 13 12 12 14 14 14 11 7 6 6 6 6 7 8 8 9 9 7 10 10 9 10 9 5 4 4 5 5 3 5 5 5 5 5 5 4 4 7 5 5 5 7 7 9 4 7 9 10 9 8 2 3 7 7 7 4 nan 8 8 6 4 6 6 7 6 nan nan 12 13 14 16 17 16 13 13 15 14 14 15 15
14 10 9 11 12 14 14 13 13 14 14 12 9 7 8 7 7 8 9 9 10 9 9 10 11 10 8 10 7 5 4 4 6 3 4 5 4 5 4 5 4 3 4 4 3 3 6 7 5 6 6 7 9 7 7 7 7 4 7 6 8 7 5 5 6 4 5 5 7 7 5 nan 8 8 9 nan 10 15 14 16 15 17 16 17 18
13 10 9 11 12 15 15 12 12 13 14 13 10 8 8 8 8 8 8 9 9 10 10 9 11 11 10 9 10 7 5 4 5 4 3 4 4 3 3 3 3 2 2 3 2 4 4 5 4 5 6 5 7 5 7 6 8 4 3 4 3 7 5 4 4 5 3 3 6 7 6 9 6 9 10 10 6 11 16 16 15 16 17 18 18
12 13 9 9 11 14 14 12 12 13 13 13 11 9 8 8 9 8 8 8 7 9 10 10 10 11 11 9 9 8 6 4 3 3 2 2 2 2 1 1 2 1 1 2 1 2 3 3 3 3 4 4 5 4 5 4 5 5 1 3 3 4 2 1 4 3 3 3 4 5 7 7 8 10 9 8 12 13 12 18 18 19 17 18 18
Wind_Direction
32 25 33 15 12 26 1 352 344 341 346 345 338 331 328 317 308 297 302 310 314 321 322 316 304 297 293 289 285 275 266 255 250 250 248 242 240 240 238 238 241 245 242 237 228 222 219 221 223 228 226 225 225 230 235 239 241 244 244 243 247 249 249 249 281 285 266 258 259 253 247 244 248 244 239 239 235 233 234 256 250 179 166 187 240
10 17 31 39 24 33 3 357 346 349 6 356 339 329 327 314 311 306 310 315 319 320 312 302 293 283 276 274 271 270 264 260 255 250 249 253 258 254 253 251 246 245 247 250 242 235 233 233 234 232 234 231 228 235 244 250 253 259 259 254 251 252 259 283 286 270 264 263 267 261 253 246 244 241 237 239 238 228 224 236 240 222 181 198 225
353 3 15 15 24 15 3 7 24 27 16 359 332 328 331 327 330 325 322 321 315 307 294 288 281 284 285 284 281 281 278 270 259 261 266 267 265 263 261 261 252 245 254 262 265 262 253 247 237 231 232 235 236 239 247 253 261 267 270 270 264 264 282 295 287 274 268 270 273 260 246 245 245 238 233 235 236 229 232 244 249 239 200 223 220
347 356 8 357 4 24 354 6 37 39 22 352 336 342 345 339 335 324 314 296 286 273 271 265 267 268 271 275 272 272 275 273 266 271 280 283 271 268 270 270 274 283 284 276 271 273 270 265 253 246 243 244 243 245 240 251 265 269 274 276 279 284 293 300 282 283 283 282 282 268 251 244 240 237 233 239 245 244 243 247 252 243 248 237 240
343 354 355 3 6 17 12 6 30 32 15 5 357 5 1 330 308 282 261 251 246 247 246 238 239 239 247 259 270 283 288 298 302 301 300 278 277 278 289 290 290 295 288 284 277 266 267 269 264 260 256 251 249 246 251 255 263 272 278 285 289 293 296 296 287 273 279 284 276 268 254 243 217 228 230 235 247 250 245 240 243 238 230 242 248
341 353 1 14 21 13 15 14 8 4 8 12 360 1 325 295 273 265 248 245 249 244 235 236 240 244 247 264 280 299 317 330 345 344 322 303 297 296 318 305 300 301 305 307 279 273 272 268 272 268 260 255 252 251 250 253 262 270 277 283 286 289 293 279 269 281 282 277 266 257 241 216 206 199 227 227 229 243 251 253 246 240 227 235 230
336 357 357 2 28 13 25 10 355 358 5 1 6 342 290 282 281 266 263 274 266 249 241 239 240 246 261 286 314 324 344 353 355 346 330 319 301 323 335 311 302 312 317 304 286 265 265 268 273 276 270 265 252 243 250 259 262 267 272 276 280 288 287 278 273 278 273 260 232 281 212 204 172 175 229 224 211 214 239 249 256 260 255 277 285
342 353 350 353 10 18 23 3 352 352 352 355 4 7 324 307 313 304 305 294 267 251 251 255 276 346 351 349 350 354 358 2 357 340 324 315 295 319 4 327 316 325 331 319 290 272 269 271 272 270 269 264 247 242 240 239 258 270 276 279 282 297 283 274 264 260 253 174 167 178 164 154 146 141 219 234 178 170 205 223 238 251 270 279 285
337 336 338 340 349 350 1 353 349 343 344 351 10 351 333 320 303 299 269 262 251 259 257 308 23 38 29 13 11 6 2 360 358 342 337 318 301 337 30 340 319 324 343 341 301 295 290 283 271 267 265 257 247 237 234 254 271 269 269 272 287 283 265 266 264 229 192 111 125 135 141 119 146 131 157 179 215 196 235 182 253 290 282 301 304
331 333 332 344 351 348 348 345 343 337 340 346 1 310 271 254 188 207 216 219 249 267 317 26 37 34 25 22 17 6 3 6 359 354 349 337 313 319 64 22 329 319 336 13 333 320 323 318 294 270 262 253 232 224 216 250 246 246 239 239 254 266 279 307 284 190 120 114 116 112 112 147 128 131 138 145 145 137 150 77 72 344 332 303 309
328 330 338 341 335 344 338 336 332 323 313 296 234 259 279 286 127 216 223 239 294 333 7 28 37 31 24 15 6 4 9 9 3 2 353 348 327 315 27 61 342 323 345 43 19 330 342 342 317 264 203 218 207 132 104 276 249 223 210 156 214 282 332 353 113 103 105 106 102 101 102 147 108 107 123 143 176 106 354 353 325 315 312 313 314
320 326 332 330 332 337 334 332 322 315 309 289 288 295 302 310 322 330 337 349 353 9 7 18 25 30 32 27 12 10 5 11 12 5 6 359 343 328 336 27 32 351 342 13 21 8 28 349 340 26 168 172 127 101 93 260 246 197 155 119 61 92 65 121 116 109 105 98 100 100 103 106 108 111 125 6 16 32 13 338 328 321 323 321 321
316 319 325 334 334 330 330 328 319 318 316 321 330 330 322 336 339 332 356 6 6 15 7 14 27 33 41 46 35 16 11 13 8 8 9 7 347 335 336 359 19 356 346 356 8 11 19 28 18 40 90 114 104 101 118 185 254 106 104 117 129 112 95 65 93 111 112 109 105 107 108 109 110 126 106 30 10 28 358 340 333 326 321 319 322
315 323 332 331 337 326 326 322 312 316 332 339 337 327 327 331 333 346 3 3 13 16 24 23 26 48 54 43 40 28 16 12 13 11 16 12 358 344 337 349 357 2 347 352 360 2 14 27 42 42 79 79 91 109 125 138 309 79 112 134 118 94 83 94 103 100 99 100 102 105 107 103 100 90 24 14 7 14 346 339 329 322 322 320 319
323 327 327 327 332 333 324 317 313 322 335 341 331 327 327 329 335 342 353 0 14 33 35 36 31 55 64 49 33 23 15 4 10 19 19 18 15 353 352 2 359 358 354 353 353 360 5 17 33 43 55 63 86 92 116 135 133 147 109 106 101 104 103 93 94 94 95 97 99 97 97 96 74 39 2 4 11 347 347 342 332 325 323 320 323
322 320 323 333 332 333 336 321 309 320 332 336 320 317 320 329 333 339 355 4 18 31 33 35 40 49 54 49 35 21 11 5 14 20 25 27 24 4 2 5 3 4 3 1 357 355 2 11 29 52 74 85 88 100 108 127 129 32 102 117 105 92 100 95 100 100 96 95 93 93 83 80 47 12 351 355 350 354 347 339 328 325 321 321 325
310 325 330 331 334 334 331 326 300 307 320 334 316 311 324 334 338 333 351 9 26 43 46 43 40 35 37 38 31 20 8 1 7 17 29 25 20 13 7 5 6 7 8 8 1 360 4 12 29 50 75 80 86 96 102 100 85 20 66 105 101 97 83 68 86 92 95 96 98 98 88 78 49 1 352 349 350 347 342 335 330 329 330 329 327
319 325 329 336 334 330 326 287 285 309 20 356 324 321 332 343 346 343 355 11 35 47 57 49 36 29 37 31 20 12 360 359 6 16 22 26 28 28 12 2 10 11 16 12 8 10 5 10 23 40 64 76 77 82 55 73 63 33 8 15 61 81 93 82 75 83 85 89 96 91 90 40 26 359 350 348 345 343 341 336 341 342 341 338 331
314 322 332 335 330 325 316 313 300 145 62 109 110 44 351 8 1 351 10 26 44 57 53 38 22 26 25 24 14 12 13 6 8 23 20 14 23 32 21 22 14 14 23 19 18 14 15 19 28 41 51 58 61 48 40 49 62 60 19 346 12 56 97 113 98 72 75 83 85 87 77 27 4 356 349 349 349 348 347 349 351 349 342 336 330
308 324 331 332 325 321 337 340 268 57 86 73 74 76 17 357 350 346 13 39 51 60 50 33 17 18 23 20 15 23 13 17 355 16 7 10 14 33 29 39 29 20 22 25 25 25 26 30 36 43 49 56 55 48 44 40 45 53 39 344 5 13 79 97 98 96 90 82 80 83 46 0 358 3 1 357 360 358 357 353 352 347 341 335 328
311 323 321 322 318 324 331 160 239 26 56 40 84 95 63 5 3 350 13 43 58 52 45 25 15 16 20 24 30 51 57 57 51 42 21 50 13 6 16 39 47 41 37 31 27 29 33 36 40 46 53 53 50 47 45 45 45 43 42 231 74 93 85 66 72 85 88 87 84 74 35 16 14 12 8 9 6 3 0 357 355 350 345 341 340
309 315 318 308 319 330 325 307 151 85 108 126 123 119 104 64 65 68 71 66 60 51 58 55 34 56 13 45 70 68 66 64 59 34 54 34 34 10 10 19 36 46 51 49 40 33 35 42 41 41 42 44 42 63 68 69 66 56 45 18 55 65 68 67 53 62 59 69 56 41 18 12 15 14 12 14 15 13 7 4 2 1 359 359 0
313 311 322 306 317 332 323 307 296 107 51 116 139 128 89 121 86 84 89 62 68 63 78 57 59 53 56 56 63 60 52 66 67 53 49 4 21 15 11 16 27 41 49 53 57 50 47 49 50 49 48 45 68 79 71 73 73 66 57 58 66 58 58 49 43 46 50 42 42 19 13 9 12 18 20 20 23 22 21 20 24 24 25 27 26
318 323 321 308 316 342 312 274 242 90 128 153 158 124 115 113 102 94 90 93 86 97 75 66 61 64 60 59 58 47 41 61 25 350 9 49 45 15 9 15 26 40 46 66 66 66 63 67 73 78 87 83 82 83 80 67 71 69 75 69 62 58 57 58 41 36 39 30 32 15 17 19 18 22 28 31 36 38 38 41 41 43 42 48 48
317 317 312 309 316 325 291 247 182 131 126 168 163 134 119 114 114 108 95 95 100 93 82 71 57 60 59 61 41 39 32 46 53 61 77 78 67 58 56 59 62 65 60 73 77 73 74 76 85 89 84 82 82 76 76 69 70 72 70 61 66 60 55 57 49 44 44 47 42 24 22 27 29 33 36 42 46 50 51 54 55 53 53 55 57
315 310 316 311 319 322 299 252 196 115 136 161 160 138 100 114 106 110 103 104 91 76 79 76 59 55 55 50 44 39 33 47 59 67 65 75 68 78 95 71 65 61 67 70 73 75 84 78 68 73 76 74 73 76 68 78 71 70 58 62 65 61 61 59 55 51 51 55 48 31 33 35 37 39 44 47 48 50 55 56 57 56 57 57 57
312 308 310 311 316 314 302 257 163 146 140 182 179 161 130 112 109 110 111 111 138 120 93 68 62 49 51 48 40 46 42 35 41 44 47 65 73 70 80 94 83 77 69 72 69 74 79 78 80 73 65 62 65 69 77 73 83 58 44 58 59 58 61 57 58 61 61 62 56 33 40 43 43 42 45 49 50 51 51 53 52 54 54 55 56
302 310 313 315 317 321 316 301 181 158 182 190 186 163 147 110 122 132 133 136 117 57 70 75 31 39 44 35 40 62 64 40 43 53 57 68 76 78 74 80 90 93 83 81 75 78 78 88 89 91 81 90 61 44 49 64 62 80 59 47 51 59 60 61 59 62 66 66 65 49 42 44 45 46 45 46 50 49 49 51 53 53 52 51 51
308 313 311 314 325 315 329 302 248 177 197 176 190 173 149 140 146 136 146 128 106 85 54 44 31 29 22 2 9 50 79 55 49 56 71 74 72 70 82 82 89 93 97 101 98 88 86 83 82 85 80 71 81 66 68 54 60 54 71 57 50 52 58 57 55 59 65 68 69 57 43 43 45 43 43 43 44 46 45 44 47 47 48 49 49
305 312 311 310 320 319 331 301 281 184 188 182 179 173 159 154 147 142 124 69 79 76 61 50 46 34 11 28 349 360 79 76 66 46 76 95 97 84 79 84 85 94 96 106 94 96 92 91 77 77 78 81 80 77 59 64 58 59 48 68 58 47 58 59 58 58 62 67 69 61 43 44 46 47 45 46 44 46 47 47 46 47 46 46 45
307 310 306 312 302 323 326 296 255 187 180 183 165 205 180 137 140 126 101 69 63 53 64 57 42 27 20 24 33 24 31 58 70 63 74 68 72 87 101 94 87 90 103 98 110 101 103 104 105 99 92 87 81 88 93 81 78 66 69 68 71 57 54 62 57 53 56 69 68 67 59 45 48 48 48 47 50 51 50 50 47 48 47 46 43
314 309 294 305 315 330 317 298 264 188 161 196 169 198 173 149 136 119 102 101 86 73 72 74 84 94 45 69 55 78 115 178 117 100 100 113 121 127 120 117 119 117 114 110 115 118 118 114 104 105 105 106 109 86 84 105 96 85 71 69 76 89 52 60 54 52 58 63 67 70 69 65 52 51 51 50 49 51 55 51 48 47 47 45 45
297 308 300 318 318 332 304 300 262 192 159 201 177 174 163 151 134 130 115 119 88 89 88 98 146 102 93 98 111 131 117 127 144 131 119 122 127 117 116 119 117 112 117 120 118 114 110 110 105 108 113 111 108 100 83 53 78 87 79 75 69 68 74 60 71 60 51 54 64 66 69 67 66 56 54 55 51 51 49 50 49 45 42 43 40
295 282 305 319 311 315 284 269 247 219 148 190 174 164 158 152 135 125 127 113 100 105 113 160 113 104 103 109 126 142 130 155 143 140 126 125 107 115 112 111 104 101 96 94 91 99 107 99 109 115 114 109 104 105 96 92 91 83 89 87 84 92 83 67 51 62 59 54 58 62 66 69 71 72 68 56 55 51 49 46 46 43 43 38 38
292 297 311 312 322 298 275 228 231 220 140 194 163 164 158 156 128 133 137 105 109 103 89 107 109 101 100 105 110 123 151 151 135 128 134 126 116 113 111 98 96 96 98 94 90 104 113 116 112 113 116 104 110 107 107 118 117 117 106 91 92 91 93 97 83 57 59 60 57 59 63 65 68 67 67 67 58 52 47 46 44 44 44 45 42
308 290 nan 300 nan 300 282 250 252 212 152 188 165 168 156 165 134 156 138 103 118 111 110 91 89 86 85 86 93 120 135 136 130 128 121 115 106 104 102 100 95 96 90 100 99 99 100 102 108 109 107 121 121 107 103 104 97 103 100 92 99 104 99 101 91 85 63 55 62 63 63 65 61 64 57 62 60 54 44 43 44 46 47 48 49
nan 300 303 294 315 296 260 278 286 226 162 192 171 173 166 157 165 144 79 113 107 117 122 110 102 88 96 107 108 93 93 103 100 105 105 105 116 106 104 102 102 92 100 102 105 105 109 116 117 113 129 117 122 98 105 99 97 79 77 99 113 108 97 86 90 93 87 90 58 47 58 62 60 48 57 56 52 52 47 43 44 44 45 47 49
nan 302 nan 299 nan 285 289 260 235 209 180 177 177 180 173 173 174 153 137 123 110 120 126 135 124 158 144 125 123 120 106 90 85 83 93 106 109 120 94 98 95 98 101 102 105 117 121 119 116 122 115 117 114 114 104 98 96 91 99 102 93 100 106 108 87 81 80 85 94 75 43 48 53 47 53 52 49 46 47 45 42 43 44 45 45
nan 304 nan 272 295 268 207 243 226 193 190 179 190 180 196 176 175 167 143 127 128 138 146 145 161 154 142 128 118 117 108 110 105 103 112 103 104 92 96 77 85 89 101 106 100 100 96 99 108 116 117 114 118 110 119 113 102 104 112 116 112 106 102 81 86 66 66 58 58 58 51 54 48 50 56 54 52 42 44 45 48 49 48 43 40
293 277 nan 277 238 270 198 234 212 196 191 188 191 190 195 172 180 179 166 131 140 150 160 149 178 157 151 124 112 107 106 99 91 99 107 93 90 92 99 101 96 100 95 88 91 90 89 90 104 128 122 115 112 112 117 109 126 144 129 105 108 99 80 80 65 64 69 63 79 81 58 58 47 39 44 58 53 43 43 42 44 44 43 37 37
281 274 298 284 237 nan 214 238 214 197 190 190 194 195 217 174 181 189 nan 126 143 157 145 167 181 159 142 118 107 100 89 81 86 85 80 90 105 94 93 101 90 85 94 96 99 97 100 102 101 103 107 110 111 114 107 120 146 126 121 120 106 88 81 72 64 57 58 62 76 78 86 45 43 62 48 40 41 38 40 40 40 40 38 28 32
280 276 295 277 235 nan 228 236 214 211 201 199 202 206 211 184 182 174 nan 145 149 163 153 161 187 175 149 125 119 111 102 94 90 88 83 79 83 81 74 84 77 80 94 99 106 108 105 95 88 96 103 110 107 95 132 127 116 109 101 99 94 85 73 63 56 45 48 50 59 64 67 42 22 38 50 54 54 45 33 28 31 31 30 24 25
299 290 278 265 236 nan 214 227 213 228 215 217 205 211 214 190 174 162 164 168 153 162 154 156 169 206 162 129 119 100 90 87 90 91 93 90 84 88 85 79 81 75 80 87 85 93 102 99 98 100 103 99 117 128 105 107 105 84 107 115 92 90 98 87 74 56 51 41 38 54 65 15 21 32 36 40 38 43 39 26 30 19 19 22 21
290 285 293 270 240 236 210 227 216 231 227 224 217 217 212 189 176 154 152 179 169 166 163 175 160 206 170 143 133 116 90 78 70 80 99 91 78 80 83 97 91 89 91 93 88 78 84 94 101 99 104 106 103 109 108 119 115 121 122 97 92 86 60 69 62 63 62 33 39 nan 61 33 28 36 36 30 29 31 26 24 22 28 25 24 19
296 286 287 275 235 251 221 230 218 229 230 236 240 216 209 193 170 160 154 177 206 177 177 181 nan 177 185 156 130 115 99 97 88 86 92 92 84 81 89 99 95 81 79 83 87 92 97 93 90 94 98 110 111 113 110 118 142 141 132 130 108 73 63 47 35 71 76 77 27 23 65 42 19 29 33 30 12 19 27 16 21 24 29 21 31
298 279 275 270 247 243 230 228 222 220 239 248 251 219 202 203 183 178 174 176 195 202 181 181 nan nan 166 163 142 104 96 105 110 92 107 104 103 97 79 94 90 88 82 91 96 103 98 100 86 96 105 105 121 114 115 127 138 133 123 90 88 85 73 51 61 78 92 102 90 10 59 51 15 17 25 15 18 25 27 9 25 21 22 25 28
306 283 270 263 250 246 236 234 228 219 236 247 258 222 217 198 198 191 188 187 190 198 184 176 184 nan 160 196 186 140 137 113 103 121 125 127 121 114 111 100 91 86 95 82 86 87 91 88 96 92 115 129 121 125 104 139 150 118 100 89 81 104 81 86 81 94 110 105 111 39 35 36 7 11 20 12 23 15 22 12 19 21 27 28 31
316 294 278 268 250 247 246 239 228 226 232 243 248 243 227 213 211 203 196 198 183 195 190 170 185 193 164 172 207 173 161 140 145 156 143 145 143 132 128 123 105 95 93 86 78 93 110 87 86 96 103 107 107 119 128 127 99 119 107 124 94 nan 110 119 125 103 86 97 95 76 nan nan 358 26 24 7 21 7 21 14 22 26 23 32 33
323 308 280 257 245 247 246 238 235 231 234 251 247 246 231 224 224 210 207 198 186 191 184 174 178 185 189 169 199 198 201 166 151 180 162 150 162 149 137 130 132 128 106 92 53 83 85 89 68 74 89 92 105 114 126 111 103 85 125 139 138 113 111 100 103 85 100 83 78 59 41 nan 30 14 30 nan 22 8 16 32 34 29 23 28 36
328 308 284 262 256 249 251 247 244 235 236 252 249 249 238 232 227 219 222 205 190 187 185 180 180 184 188 183 186 207 212 188 156 174 188 160 160 161 151 122 122 111 88 98 2 13 51 82 84 73 73 72 85 97 98 117 120 123 92 127 129 134 134 109 77 76 64 76 71 84 39 28 32 39 39 45 49 44 20 39 40 39 24 32 34
322 324 310 272 269 261 258 256 247 237 239 252 254 251 242 232 230 231 227 218 198 189 193 195 188 190 185 191 184 196 207 205 170 175 207 137 158 160 125 127 127 178 170 178 226 336 337 9 42 48 49 44 69 84 90 91 105 130 95 119 105 83 58 191 110 118 91 65 76 85 86 52 6 40 50 25 45 50 39 29 44 46 25 31 34